Location: Roanoke
(37.2710°N, 79.9420°W)
Time: 08:17:26
(UTC-05:00)

Courier 1B Rocket - Pass Details

Date: 21 November 2019
Orbit: 920 x 1202 km, 28.2° (Epoch: 05 December)

Event Time Altitude Azimuth Distance (km) Brightness Sun altitude
Rises 18:21:31 0° 264° (W) 3,917 10.0 -15.0°
Reaches altitude 10° 18:24:34 10° 254° (WSW) 3,000 8.9 -15.6°
Maximum altitude 18:30:54 31° 196° (SSW) 1,930 6.8 -16.8°
Drops below altitude 10° 18:37:28 10° 138° (SE) 3,113 7.3 -18.1°
Enters shadow 18:39:04 - 133° (SE) 3,586 7.6 -18.4°
Sets 18:40:42 0° 129° (SE) 4,087 - -18.7°
